This demonstration page uses our WeatherBlox Daily Observations layout. Learn more.

Left ArrowRight Arrow

Hourly Observations for June 14, 2020

Temp ( °F °C ) Dew Point ( °F °C ) Humidity (%) Winds ( mph kmh ) Pressure ( in mb ) Visibility ( mi km ) Precip ( " mm )
12:53 am 00:53 Clear 59 15 41 5 51 51 W 14 22 29.63 1003 10 16 N/A
1:53 am 01:53 Clear 56 13.3 40 4.4 55 55 W 10 17 29.65 1004 10 16 N/A
2:53 am 02:53 Clear 56 13.3 39 3.9 53 53 W 7 11 29.68 1005 10 16 N/A
3:53 am 03:53 Mostly Clear 54 12.2 40 4.4 59 59 SW 8 13 29.67 1005 10 16 N/A
4:53 am 04:53 Clear 54 12.2 39 3.9 57 57 SSW 12 19 29.69 1006 10 16 N/A
5:53 am 05:53 Sunny 51 10.6 40 4.4 66 66 SW 10 17 29.68 1005 10 16 N/A
6:53 am 06:53 Sunny 53 11.7 39 3.9 59 59 SW 15 24 29.70 1006 10 16 N/A
7:53 am 07:53 Sunny 53 11.7 39 3.9 59 59 SW 16 26 29.70 1006 10 16 N/A
8:53 am 08:53 Sunny 57 13.9 40 4.4 53 53 WSW 18 30 29.70 1006 10 16 N/A
9:53 am 09:53 Sunny 59 15 38 3.3 46 46 WSW 20 31 29.68 1005 10 16 N/A
10:53 am 10:53 Sunny 61 16.1 38 3.3 43 43 SW 10 17 29.69 1006 10 16 N/A
11:53 am 11:53 Mostly Sunny 64 17.8 36 2.2 35 35 WSW 14 22 29.70 1006 10 16 N/A
12:53 pm 12:53 Sunny 65 18.3 36 2.2 34 34 SSW 13 20 29.70 1006 10 16 N/A
1:53 pm 13:53 Mostly Sunny 68 20 37 2.8 32 32 SW 12 19 29.69 1006 10 16 N/A
2:53 pm 14:53 Cloudy with Light Rain 64 17.8 40 4.4 41 41 SSW 26 43 29.71 1006 10 16 0.00 0.00
3:53 pm 15:53 Sunny 69 20.6 38 3.3 32 32 SW 23 37 29.70 1006 10 16 0.00 0.00
4:53 pm 16:53 Partly Cloudy 69 20.6 35 1.7 29 29 SW 20 31 29.71 1006 10 16 N/A
5:53 pm 17:53 Mostly Sunny 70 21.1 32 undefined 25 25 SW 22 35 29.72 1006 10 16 N/A
6:53 pm 18:53 Sunny 66 18.9 33 0.6 29 29 W 14 22 29.72 1006 10 16 N/A
7:53 pm 19:53 Partly Cloudy 62 16.7 34 1.1 35 35 WNW 20 31 29.76 1008 10 16 N/A
8:19 pm 20:19 Mostly Sunny 60 15.6 36 2.2 41 41 WSW 10 17 29.73 1007 10 16 N/A
8:53 pm 20:53 Sunny with Light Rain 59 15 35 1.7 41 41 SSW 18 30 29.77 1008 10 16 0.00 0.00
9:53 pm 21:53 Clear 55 12.8 35 1.7 47 47 SSW 18 30 29.79 1009 10 16 0.00 0.00
10:53 pm 22:53 Clear 56 13.3 33 0.6 42 42 SSW 20 31 29.78 1009 10 16 N/A
11:53 pm 23:53 Clear 55 12.8 33 0.6 44 44 SW 23 37 29.79 1009 10 16 N/A

Powered by AerisWeather